Jose Olivera

Scout - Central Espanol
19 Aug 2027
Donnerstag
Verarbeitung

Persönlichkeit

Anpassungsfähigkeit (6) Ehrgeiz (18) Kontroverse (9) Loyalität (19) Druck (9) Professionalität (1) Fairness (7) Temperament (11)

Profil

Trainerstil Demokratisch
Lizenz Kontinentale A
Entschlossenheit 2
Menschenführung 10
Motivation 7
Disziplin 6
Arbeitszufriedenheit
73%
Ermüdung
0%
Rolle Scout
Gehalt 36.1K p/W
Vertrag 14.03.2029

Leistung

Verhalten Gut
Trainingseffektivität
15%
Spielerentwicklung
45%
Verletzungsprävention
10%
Taktische Umsetzung
10%

Letzte Ereignisse

Nahm an einer Scouting-Besprechung teil 7T her
Nahm an einer Scouting-Besprechung teil 14T her
Nahm an einer Scouting-Besprechung teil 21T her
Nahm an einer Scouting-Besprechung teil 28T her
Nahm an einer Scouting-Besprechung teil 35T her
Nahm an einer Scouting-Besprechung teil 42T her
Nahm an einer Scouting-Besprechung teil 49T her
Nahm an einer Scouting-Besprechung teil 56T her

Aktuell beobachtet

67
Spieler Verein Status Fähigkeit Vertrauen Beobachtet Zuletzt beobachtet Letzte Stimme
Michel Silveira Rentistas Aktiv 78 / 91 41% 1 14.12.2026 -
Brian Orosco Godoy Cruz Aktiv 117 / 128 40% 1 27.11.2026 -
Franco Malagueño Colegiales Aktiv 118 / 98 40% 1 25.11.2026 -
Josip Mitrović Slaven Belupo Aktiv 110 / 95 40% 1 25.11.2026 -
Samuel Lucero Defensa y Justicia Aktiv 104 / 121 40% 1 24.11.2026 -
Adilson Córdoba Aktiv 134 / 120 40% 1 23.11.2026 -
Nikita Iosifov Viktoria Plzen Aktiv 113 / 106 40% 1 23.11.2026 -
Ulises Sánchez Gimnasia y Esgrima Aktiv 117 / 124 40% 2 22.11.2026 -
Mauro Valiente Estudiantes Aktiv 126 / 120 40% 2 22.11.2026 -
Rodrigo González Mitre Aktiv 120 / 126 40% 2 17.11.2026 -
Franco Romero HNK Gorica Aktiv 84 / 94 40% 1 17.11.2026 -
Enzo Avaro Odd Aktiv 137 / 94 40% 2 16.11.2026 Mehr Infos nötig
Emiliano Gil Salyut Aktiv 102 / 106 40% 1 16.11.2026 -
Diego Gaitán Maipú Aktiv 101 / 125 40% 1 10.11.2026 -
Antony Alonso Deportivo Riestra Aktiv 109 / 128 40% 2 09.11.2026 -
Julián Cosi Madryn Aktiv 121 / 99 40% 1 08.11.2026 -
Thomas Ortega Quilmes Aktiv 104 / 113 40% 1 03.11.2026 -
Alexander Díaz Deportivo Riestra Aktiv 125 / 122 40% 1 01.11.2026 -
Juergen Elitím Bohemians 1905 Aktiv 101 / 139 40% 1 01.11.2026 -
Ramiro Hernandes Belgrano Aktiv 109 / 124 40% 2 22.10.2026 -
Lisandro Montenegro Chacarita Juniors Aktiv 103 / 128 40% 1 20.10.2026 -
Iñaki Larthirigoyen San Telmo Aktiv 125 / 112 40% 1 17.10.2026 -
Marco Miori Alvarado Aktiv 115 / 111 40% 1 16.10.2026 -
Axel Batista Quilmes Aktiv 118 / 116 40% 1 15.10.2026 -
Lautaro Villegas Banfield Aktiv 100 / 127 40% 1 15.10.2026 -
Facundo Castet Colón Aktiv 99 / 114 40% 1 11.10.2026 -
David Veliz Güemes Aktiv 109 / 108 40% 1 11.10.2026 -
Brian Farioli Estudiantes Aktiv 128 / 107 40% 1 10.10.2026 -
Oscar Garrido Mitre Aktiv 118 / 105 40% 1 10.10.2026 -
Estanislao Jara Madryn Aktiv 101 / 117 40% 1 09.10.2026 -
Valentín Serrano Arsenal Aktiv 111 / 99 40% 1 08.10.2026 -
Néider Barona Altach Aktiv 122 / 127 40% 1 02.10.2026 -
Augusto Berrondo Tristán Suárez Aktiv 112 / 102 40% 1 02.10.2026 -
Juan Yangali San Telmo Aktiv 123 / 103 40% 1 26.09.2026 -
Diego Valencia Universidad Catolica Aktiv 104 / 120 40% 2 21.09.2026 Mehr Infos nötig
Matías Núñez Carabobo Aktiv 98 / 87 40% 1 20.09.2026 -
Jorge Espejo Universidad de Concepcion Aktiv 110 / 121 40% 1 19.09.2026 -
Esteban Valencia Cobresal Aktiv 94 / 97 40% 1 18.09.2026 -
Harold Antiñirre Huachipato Aktiv 105 / 113 40% 2 17.09.2026 -
Jhamir D'Arrigo Melgar Aktiv 131 / 113 40% 1 17.09.2026 -
Agustín Amado Boston River Aktiv 130 / 115 40% 1 16.09.2026 -
Job Ochieng Real Sociedad Aktiv 123 / 103 40% 1 16.09.2026 -
Lautaro Lusnig Deportivo Tachira Aktiv 105 / 118 40% 1 14.09.2026 -
Agustín Paz Progreso Aktiv 130 / 111 40% 1 14.09.2026 -
Rodrigo López Pumas UNAM Aktiv 114 / 113 40% 1 12.09.2026 -
Gabriel Otero Llaneros Aktiv 99 / 102 40% 1 12.09.2026 -
Jáder Quiñónes Once Caldas Aktiv 113 / 132 40% 1 11.09.2026 -
Aldair Gutiérrez Atletico Bucaramanga Aktiv 122 / 123 40% 1 11.09.2026 -
Daniel Arcila Leon Aktiv 99 / 106 40% 2 10.09.2026 -
Agustín Venezia Iquique Aktiv 119 / 106 40% 1 10.09.2026 -
Juan Manuel Zapata Envigado Aktiv 102 / 132 40% 1 07.09.2026 -
Andrés Sarmiento Atletico Nacional Aktiv 124 / 112 40% 1 03.09.2026 -
Adrián Cuadra Antofagasta Aktiv 104 / 117 40% 1 02.09.2026 -
Mariano Bracamonte Deportivo Riestra Aktiv 114 / 129 40% 1 29.08.2026 -
Jesús Rivas Junior Aktiv 122 / 111 40% 1 23.08.2026 -
William Hurtado Envigado Aktiv 96 / 120 40% 1 20.08.2026 -
Aldahir Pérez Tijuana Aktiv 105 / 128 40% 1 15.08.2026 -
Jeremy Márquez Cruz Azul Aktiv 140 / 126 40% 1 15.08.2026 -
Bastián Yáñez O'Higgins Aktiv 119 / 113 40% 1 13.08.2026 -
Mateo Garavito Deportivo Pasto Aktiv 124 / 107 40% 1 12.08.2026 -
Tobías Bovone Deportivo Pereira Aktiv 104 / 94 40% 1 10.08.2026 -
Jesús Vargas Metropolitanos Aktiv 110 / 117 40% 1 10.08.2026 -
Esneyder Mena Deportivo Pasto Aktiv 100 / 121 40% 1 06.08.2026 -
Darío Cáceres Defensa y Justicia Aktiv 113 / 104 40% 1 06.08.2026 -
José Rivera Universitario Aktiv 108 / 126 40% 1 02.08.2026 -
Yílmar Velásquez Santa Fe Aktiv 129 / 119 40% 1 01.08.2026 -
Jaen Pineda Real Cartagena Aktiv 118 / 134 40% 1 01.08.2026 -